TDRS 3

Track TDRS 3 now!
TDRS 3 is classified as:


NORAD ID: 19548
Int'l Code: 1988-091B
Perigee: 35,630.3 km
Apogee: 35,952.4 km
Inclination: 14.6 °
Period: 1,436.0 minutes
Semi major axis: 42162 km
RCS: 38.9601 m2 (large)
Launch date: September 29, 1988
Source: United States (US)

Backup; still partially operational.
Your satellite tracking list
Your tracking list is empty





NASA's NSSDC Master Catalog

Two Line Element Set (TLE):
1 19548U 88091B   15124.47199234 -.00000298  00000-0  00000+0 0  9994
2 19548 014.6020 016.4954 0038197 306.3690 006.6485 01.00280254 84649

Source of the keplerian elements: AFSPC

N2YO: 4450